Flag for New Zealand Weather past 2 weeks in Wellington, New Zealand

Now
48 °F

Cool.


Feels Like: 46 °F
Forecast: 47 / 56 °F
Wind: 5 mph from North

Location: Wellington Airport

Current Time: Jul 1, 2015 at 5:12:08 AM

Latest Report: Jul 1, 2015 at 4:30 AM


Visibility: N/A

Pressure: 29.89 "Hg

Humidity: 76%

Dew point: 41 °F

Location of WellingtonLocation

Historic Weather in Wellington — Graph

°F

Wellington temperature yesterday

Maximum temperature yesterday: 57 °F (at 11:30 AM)
Minimum temperature yesterday: 41 °F (at 4:30 AM)
Average temperature yesterday: 51 °F

Past Weeks' High & Low Weather Summary

 TemperatureHumidityPressure
High61 °F (Jun 19, 10:30 AM)100% (Jun 18, 8:30 PM)30.51 "Hg (Jun 18, 8:30 PM)
Low39 °F (Jun 17, 4:00 AM)41% (Jun 27, 1:00 PM)29.59 "Hg (Jun 20, 1:00 AM)
Average50 °F75%30.01 "Hg
* Reported Jun 16 3:00 AM — Jul 1 3:00 AM, Wellington, Weather by CustomWeather, © 2015

Note: Actual official high and low records may vary slightly from our data, if they occured in-between our weather recording intervals... More about our weather records

Advertising

Wellington weather history for previous 24 hours

 ConditionsComfort  
Time TempWeatherWind HumidityBarometerVisibility
3:00 AM
Wed, Jul 1
52 °FCool.15 mph72%29.89 "HgN/A
2:30 AM54 °FCool.14 mph72%29.89 "HgN/A
1:30 AM52 °FCool.15 mph72%29.86 "HgN/A
1:00 AM52 °FCool.14 mph77%29.89 "HgN/A
12:30 AM52 °FCool.13 mph72%29.89 "HgN/A
12:00 AM52 °FCool.8 mph72%29.89 "HgN/A
11:30 PM
Tue, Jun 30
52 °FCool.12 mph72%29.89 "HgN/A
11:00 PM54 °FCool.13 mph72%29.89 "HgN/A
10:30 PM52 °FCool.12 mph77%29.89 "HgN/A
10:00 PM54 °FCool.12 mph67%29.89 "HgN/A
9:30 PM54 °FCool.14 mph72%29.89 "HgN/A
9:00 PM54 °FCool.12 mph72%29.89 "HgN/A
8:30 PM54 °FCool.14 mph72%29.89 "HgN/A
8:00 PM54 °FCool.17 mph77%29.89 "HgN/A
7:30 PM54 °FCool.18 mph77%29.89 "HgN/A
7:00 PM54 °FCool.18 mph77%29.89 "HgN/A
6:30 PM54 °FCool.17 mph77%29.89 "HgN/A
6:00 PM54 °FCool.18 mph77%29.89 "HgN/A
5:30 PM54 °FCool.21 mph72%29.89 "HgN/A
5:00 PM54 °FCool.21 mph77%29.89 "HgN/A
4:30 PM55 °FCool.25 mph72%29.89 "HgN/A
4:00 PM55 °FCool.22 mph72%29.89 "HgN/A
3:30 PM57 °FCool.23 mph63%29.89 "HgN/A
3:00 PM57 °FCool.20 mph63%29.89 "HgN/A
2:30 PM57 °FCool.20 mph63%29.89 "HgN/A
2:00 PM57 °FCool.20 mph63%29.89 "HgN/A
1:30 PM57 °FRefreshingly cool.22 mph59%29.92 "HgN/A
1:00 PM57 °FRefreshingly cool.22 mph59%29.92 "HgN/A
12:30 PM57 °FCool.22 mph63%29.95 "HgN/A
12:00 PM57 °FCool.18 mph67%29.95 "HgN/A
11:30 AM57 °FCool.18 mph67%29.95 "HgN/A
11:00 AM55 °FCool.15 mph72%29.98 "HgN/A
10:30 AM54 °FCool.15 mph77%29.98 "HgN/A
10:00 AM52 °FCool.12 mph77%29.98 "HgN/A
9:30 AM48 °FCool.12 mph87%29.98 "HgN/A
9:00 AM46 °FPassing clouds.12 mph87%29.98 "HgN/A
8:30 AM46 °FCool.10 mph87%29.98 "HgN/A
8:00 AM45 °FQuite cool.9 mph93%29.98 "HgN/A
7:30 AM45 °FQuite cool.10 mph87%29.98 "HgN/A
7:00 AM43 °FQuite cool.7 mph87%29.98 "HgN/A
6:30 AM43 °FQuite cool.7 mph87%29.98 "HgN/A
6:00 AM41 °FQuite cool.6 mph93%29.95 "HgN/A
5:30 AM43 °FQuite cool.6 mph87%29.95 "HgN/A
5:00 AM41 °FQuite cool.3 mph93%29.95 "HgN/A
Weather by CustomWeather, © 2015

See weather overviewHow to use our weather pages